Time,TemperatureF,DewpointF,PressureIn,WindDirection,WindDirectionDegrees,WindSpeedMPH,WindSpeedGustMPH,Humidity,HourlyPrecipIn,Conditions,Clouds,dailyrainin,SoftwareType,DateUTC
2013-06-22 00:14:00,76.9,73.0,30.14,NE,34,5.0,8.0,87,0.00,,,0.00,weatherlink.com 1.10,2013-06-22 04:14:00,
2013-06-22 00:29:00,76.7,72.0,30.14,NE,40,6.0,10.0,86,0.00,,,0.00,weatherlink.com 1.10,2013-06-22 04:29:00,
2013-06-22 00:45:00,76.7,73.0,30.14,NNE,29,6.0,9.0,87,0.00,,,0.00,weatherlink.com 1.10,2013-06-22 04:45:00,
2013-06-22 00:59:00,76.5,72.0,30.13,NE,39,6.0,9.0,86,0.00,,,0.00,weatherlink.com 1.10,2013-06-22 04:59:00,
2013-06-22 01:14:00,76.1,72.0,30.13,NE,45,6.0,10.0,86,0.00,,,0.00,weatherlink.com 1.10,2013-06-22 05:14:00,
2013-06-22 01:29:00,75.9,72.0,30.12,NE,42,7.0,10.0,88,0.00,,,0.00,weatherlink.com 1.10,2013-06-22 05:29:00,
2013-06-22 01:44:00,75.8,72.0,30.12,NNE,21,8.0,9.0,88,0.00,,,0.00,weatherlink.com 1.10,2013-06-22 05:44:00,
2013-06-22 01:59:00,75.6,72.0,30.12,NNE,26,5.0,9.0,88,0.00,,,0.00,weatherlink.com 1.10,2013-06-22 05:59:00,
2013-06-22 02:14:00,75.3,71.0,30.12,NNE,13,7.0,8.0,87,0.00,,,0.00,weatherlink.com 1.10,2013-06-22 06:14:00,
2013-06-22 02:29:00,75.2,72.0,30.11,NNE,19,6.0,11.0,88,0.00,,,0.00,weatherlink.com 1.10,2013-06-22 06:29:00,
2013-06-22 02:44:00,75.2,72.0,30.11,NNE,13,7.0,10.0,89,0.00,,,0.00,weatherlink.com 1.10,2013-06-22 06:44:00,
2013-06-22 02:59:00,75.1,72.0,30.10,NNE,17,7.0,8.0,89,0.00,,,0.00,weatherlink.com 1.10,2013-06-22 06:59:00,
2013-06-22 03:14:00,74.7,72.0,30.10,NNE,26,5.0,8.0,90,0.00,,,0.00,weatherlink.com 1.10,2013-06-22 07:14:00,
2013-06-22 03:29:00,74.6,72.0,30.10,NNE,18,6.0,8.0,90,0.00,,,0.00,weatherlink.com 1.10,2013-06-22 07:29:00,
2013-06-22 03:44:00,74.3,72.0,30.10,NNE,13,7.0,9.0,91,0.00,,,0.00,weatherlink.com 1.10,2013-06-22 07:44:00,
2013-06-22 03:59:00,74.4,72.0,30.10,NNE,15,7.0,9.0,91,0.00,,,0.00,weatherlink.com 1.10,2013-06-22 07:59:00,
2013-06-22 04:14:00,74.3,72.0,30.10,North,5,9.0,9.0,92,0.00,,,0.00,weatherlink.com 1.10,2013-06-22 08:14:00,
2013-06-22 04:29:00,74.1,72.0,30.10,North,355,8.0,10.0,92,0.00,,,0.00,weatherlink.com 1.10,2013-06-22 08:29:00,
2013-06-22 04:44:00,74.2,72.0,30.10,NNE,17,8.0,9.0,92,0.00,,,0.00,weatherlink.com 1.10,2013-06-22 08:44:00,
2013-06-22 04:59:00,74.0,72.0,30.10,NNE,17,8.0,8.0,92,0.00,,,0.00,weatherlink.com 1.10,2013-06-22 08:59:00,
2013-06-22 05:14:00,74.1,72.0,30.10,NNE,14,8.0,9.0,92,0.00,,,0.00,weatherlink.com 1.10,2013-06-22 09:14:00,
2013-06-22 05:29:00,74.0,72.0,30.10,NNE,22,8.0,8.0,92,0.00,,,0.00,weatherlink.com 1.10,2013-06-22 09:29:00,
2013-06-22 05:44:00,73.7,71.0,30.10,NNE,29,5.0,7.0,92,0.00,,,0.00,weatherlink.com 1.10,2013-06-22 09:44:00,
2013-06-22 05:59:00,73.8,71.0,30.11,NNE,26,4.0,5.0,92,0.00,,,0.00,weatherlink.com 1.10,2013-06-22 09:59:00,
2013-06-22 06:14:00,73.8,71.0,30.11,NNE,20,5.0,6.0,92,0.00,,,0.00,weatherlink.com 1.10,2013-06-22 10:14:00,
2013-06-22 06:29:00,74.3,72.0,30.11,North,11,5.0,6.0,92,0.00,,,0.00,weatherlink.com 1.10,2013-06-22 10:29:00,
2013-06-22 06:44:00,74.5,72.0,30.12,NNW,343,6.0,7.0,91,0.00,,,0.00,weatherlink.com 1.10,2013-06-22 10:44:00,
2013-06-22 06:59:00,74.3,72.0,30.12,North,360,6.0,6.0,92,0.00,,,0.00,weatherlink.com 1.10,2013-06-22 10:59:00,
2013-06-22 07:14:00,73.9,72.0,30.13,North,5,6.0,10.0,92,0.00,,,0.00,weatherlink.com 1.10,2013-06-22 11:14:00,
2013-06-22 07:29:00,73.5,71.0,30.14,North,355,8.0,10.0,92,0.00,,,0.00,weatherlink.com 1.10,2013-06-22 11:29:00,
2013-06-22 07:44:00,73.5,71.0,30.14,NNW,342,8.0,11.0,92,0.00,,,0.00,weatherlink.com 1.10,2013-06-22 11:44:00,
2013-06-22 07:59:00,73.6,71.0,30.14,NNW,343,8.0,9.0,92,0.00,,,0.00,weatherlink.com 1.10,2013-06-22 11:59:00,
2013-06-22 08:15:00,73.8,71.0,30.14,NNW,345,6.0,9.0,92,0.00,,,0.00,weatherlink.com 1.10,2013-06-22 12:15:00,
2013-06-22 08:30:00,73.6,71.0,30.15,North,351,9.0,11.0,92,0.00,,,0.00,weatherlink.com 1.10,2013-06-22 12:30:00,
2013-06-22 08:45:00,74.2,72.0,30.14,North,355,7.0,10.0,91,0.00,,,0.00,weatherlink.com 1.10,2013-06-22 12:45:00,
2013-06-22 09:00:00,75.1,72.0,30.14,North,360,4.0,9.0,90,0.00,,,0.00,weatherlink.com 1.10,2013-06-22 13:00:00,
2013-06-22 09:15:00,75.1,72.0,30.15,North,355,7.0,10.0,89,0.00,,,0.00,weatherlink.com 1.10,2013-06-22 13:15:00,
2013-06-22 09:30:00,75.5,72.0,30.16,North,360,8.0,11.0,89,0.00,,,0.00,weatherlink.com 1.10,2013-06-22 13:30:00,
2013-06-22 09:45:00,75.6,72.0,30.15,North,355,8.0,12.0,88,0.00,,,0.00,weatherlink.com 1.10,2013-06-22 13:45:00,
2013-06-22 10:00:00,75.7,72.0,30.16,NNW,339,7.0,9.0,87,0.00,,,0.00,weatherlink.com 1.10,2013-06-22 14:00:00,
2013-06-22 10:15:00,75.8,71.0,30.15,North,355,6.0,9.0,86,0.00,,,0.00,weatherlink.com 1.10,2013-06-22 14:15:00,
2013-06-22 10:30:00,76.1,71.0,30.15,North,360,7.0,9.0,85,0.00,,,0.00,weatherlink.com 1.10,2013-06-22 14:30:00,
2013-06-22 10:45:00,76.7,72.0,30.16,NNE,19,3.0,7.0,84,0.00,,,0.00,weatherlink.com 1.10,2013-06-22 14:45:00,
2013-06-22 11:00:00,77.3,71.0,30.16,NNE,13,0.0,2.0,82,0.00,,,0.00,weatherlink.com 1.10,2013-06-22 15:00:00,
2013-06-22 11:15:00,77.9,72.0,30.16,North,5,4.0,4.0,81,0.00,,,0.00,weatherlink.com 1.10,2013-06-22 15:15:00,
2013-06-22 11:30:00,78.1,72.0,30.16,North,5,1.0,3.0,81,0.00,,,0.00,weatherlink.com 1.10,2013-06-22 15:30:00,
2013-06-22 11:45:00,78.7,72.0,30.16,North,5,0.0,0.0,79,0.00,,,0.00,weatherlink.com 1.10,2013-06-22 15:45:00,
2013-06-22 12:00:00,79.3,72.0,30.16,North,11,0.0,2.0,78,0.00,,,0.00,weatherlink.com 1.10,2013-06-22 16:00:00,
2013-06-22 12:15:00,79.6,72.0,30.17,NNE,25,0.0,0.0,78,0.00,,,0.00,weatherlink.com 1.10,2013-06-22 16:15:00,
2013-06-22 12:30:00,79.9,72.0,30.16,ENE,60,1.0,3.0,76,0.00,,,0.00,weatherlink.com 1.10,2013-06-22 16:30:00,
2013-06-22 12:45:00,79.9,72.0,30.16,East,89,5.0,5.0,77,0.00,,,0.00,weatherlink.com 1.10,2013-06-22 16:45:00,
2013-06-22 13:00:00,79.1,72.0,30.16,ESE,117,2.0,7.0,79,0.00,,,0.00,weatherlink.com 1.10,2013-06-22 17:00:00,
2013-06-22 13:15:00,79.2,73.0,30.17,East,90,5.0,6.0,80,0.00,,,0.00,weatherlink.com 1.10,2013-06-22 17:15:00,
2013-06-22 13:30:00,79.4,73.0,30.17,East,96,3.0,6.0,80,0.00,,,0.00,weatherlink.com 1.10,2013-06-22 17:30:00,
2013-06-22 13:45:00,79.9,73.0,30.16,East,90,5.0,7.0,78,0.00,,,0.00,weatherlink.com 1.10,2013-06-22 17:45:00,
2013-06-22 14:00:00,79.7,72.0,30.16,East,81,6.0,8.0,77,0.00,,,0.00,weatherlink.com 1.10,2013-06-22 18:00:00,
2013-06-22 14:15:00,79.8,72.0,30.16,SE,139,4.0,10.0,78,0.00,,,0.00,weatherlink.com 1.10,2013-06-22 18:15:00,
2013-06-22 14:30:00,79.7,72.0,30.15,East,88,6.0,8.0,78,0.00,,,0.00,weatherlink.com 1.10,2013-06-22 18:30:00,
2013-06-22 14:45:00,80.0,73.0,30.14,East,86,1.0,6.0,78,0.00,,,0.00,weatherlink.com 1.10,2013-06-22 18:45:00,
2013-06-22 15:00:00,80.5,73.0,30.14,ENE,65,3.0,4.0,77,0.00,,,0.00,weatherlink.com 1.10,2013-06-22 19:00:00,
2013-06-22 15:15:00,80.4,72.0,30.14,ESE,105,0.0,5.0,76,0.00,,,0.00,weatherlink.com 1.10,2013-06-22 19:15:00,
2013-06-22 15:30:00,80.6,72.0,30.14,East,99,0.0,2.0,76,0.00,,,0.00,weatherlink.com 1.10,2013-06-22 19:30:00,
2013-06-22 15:45:00,80.5,73.0,30.13,ESE,102,3.0,5.0,77,0.00,,,0.00,weatherlink.com 1.10,2013-06-22 19:45:00,
2013-06-22 16:00:00,80.7,73.0,30.12,South,169,0.0,3.0,77,0.00,,,0.00,weatherlink.com 1.10,2013-06-22 20:00:00,
2013-06-22 16:15:00,81.4,73.0,30.12,SSW,198,3.0,6.0,76,0.00,,,0.00,weatherlink.com 1.10,2013-06-22 20:15:00,
2013-06-22 16:30:00,81.1,73.0,30.12,South,183,5.0,5.0,76,0.00,,,0.00,weatherlink.com 1.10,2013-06-22 20:30:00,
2013-06-22 16:45:00,80.9,73.0,30.12,SSW,196,3.0,10.0,77,0.00,,,0.00,weatherlink.com 1.10,2013-06-22 20:45:00,
2013-06-22 17:00:00,81.2,73.0,30.12,SSW,213,3.0,8.0,77,0.00,,,0.00,weatherlink.com 1.10,2013-06-22 21:00:00,
2013-06-22 17:15:00,80.9,73.0,30.12,SSW,205,3.0,7.0,78,0.00,,,0.00,weatherlink.com 1.10,2013-06-22 21:15:00,
2013-06-22 17:30:00,80.4,73.0,30.12,SE,146,6.0,10.0,78,0.00,,,0.00,weatherlink.com 1.10,2013-06-22 21:30:00,
2013-06-22 17:45:00,80.0,73.0,30.12,SSE,148,4.0,9.0,78,0.00,,,0.00,weatherlink.com 1.10,2013-06-22 21:45:00,
2013-06-22 18:00:00,79.8,72.0,30.12,SSE,153,4.0,9.0,78,0.00,,,0.00,weatherlink.com 1.10,2013-06-22 22:00:00,
2013-06-22 18:15:00,79.6,73.0,30.12,SE,136,6.0,9.0,79,0.00,,,0.00,weatherlink.com 1.10,2013-06-22 22:15:00,
2013-06-22 18:30:00,79.4,73.0,30.12,SSE,157,6.0,11.0,80,0.00,,,0.00,weatherlink.com 1.10,2013-06-22 22:30:00,
2013-06-22 18:45:00,79.0,73.0,30.12,SE,144,3.0,10.0,82,0.00,,,0.00,weatherlink.com 1.10,2013-06-22 22:45:00,
2013-06-22 19:00:00,79.2,73.0,30.11,SSE,148,6.0,8.0,81,0.00,,,0.00,weatherlink.com 1.10,2013-06-22 23:00:00,
2013-06-22 19:15:00,79.3,73.0,30.12,SE,143,4.0,9.0,81,0.00,,,0.00,weatherlink.com 1.10,2013-06-22 23:15:00,
2013-06-22 19:30:00,78.9,73.0,30.12,SSE,166,2.0,6.0,83,0.00,,,0.00,weatherlink.com 1.10,2013-06-22 23:30:00,
2013-06-22 19:45:00,78.7,73.0,30.12,SSE,165,4.0,5.0,83,0.00,,,0.00,weatherlink.com 1.10,2013-06-22 23:45:00,
2013-06-22 20:00:00,78.5,73.0,30.12,SSE,163,0.0,6.0,84,0.00,,,0.00,weatherlink.com 1.10,2013-06-23 00:00:00,
2013-06-22 20:15:00,78.3,73.0,30.12,SSE,158,2.0,5.0,84,0.00,,,0.00,weatherlink.com 1.10,2013-06-23 00:15:00,
2013-06-22 20:30:00,78.2,73.0,30.12,SE,145,1.0,6.0,84,0.00,,,0.00,weatherlink.com 1.10,2013-06-23 00:30:00,
2013-06-22 20:45:00,78.1,73.0,30.12,SSE,159,0.0,4.0,84,0.00,,,0.00,weatherlink.com 1.10,2013-06-23 00:45:00,
2013-06-22 21:00:00,77.9,73.0,30.12,SSE,161,2.0,5.0,85,0.00,,,0.00,weatherlink.com 1.10,2013-06-23 01:00:00,
2013-06-22 21:15:00,78.0,73.0,30.13,South,178,0.0,4.0,84,0.00,,,0.00,weatherlink.com 1.10,2013-06-23 01:15:00,
2013-06-22 21:30:00,78.0,73.0,30.13,SSE,162,0.0,2.0,84,0.00,,,0.00,weatherlink.com 1.10,2013-06-23 01:30:00,
2013-06-22 21:45:00,78.0,73.0,30.14,SSE,148,3.0,4.0,85,0.00,,,0.00,weatherlink.com 1.10,2013-06-23 01:45:00,
2013-06-22 22:00:00,78.0,73.0,30.14,SSE,152,3.0,3.0,85,0.00,,,0.00,weatherlink.com 1.10,2013-06-23 02:00:00,
2013-06-22 22:15:00,78.1,74.0,30.15,SSE,162,2.0,6.0,86,0.00,,,0.00,weatherlink.com 1.10,2013-06-23 02:15:00,
2013-06-22 22:30:00,78.1,74.0,30.15,SSE,165,3.0,6.0,86,0.00,,,0.00,weatherlink.com 1.10,2013-06-23 02:30:00,
2013-06-22 22:45:00,78.1,74.0,30.15,SSE,150,2.0,5.0,87,0.00,,,0.00,weatherlink.com 1.10,2013-06-23 02:45:00,
2013-06-22 23:00:00,78.1,74.0,30.15,South,174,4.0,5.0,88,0.00,,,0.00,weatherlink.com 1.10,2013-06-23 03:00:00,
2013-06-22 23:15:00,78.0,75.0,30.15,SSE,160,0.0,6.0,89,0.00,,,0.00,weatherlink.com 1.10,2013-06-23 03:15:00,
2013-06-22 23:30:00,77.9,75.0,30.15,SSE,167,1.0,4.0,89,0.00,,,0.00,weatherlink.com 1.10,2013-06-23 03:30:00,
2013-06-22 23:45:00,77.9,74.0,30.15,SSW,194,4.0,5.0,88,0.00,,,0.00,weatherlink.com 1.10,2013-06-23 03:45:00,